Location: D�pe
(52.6057°N, 8.1808°E)
Time: 07:54:46
(UTC+00:00)

GEOS 3 Rocket - Pass Details

Date: 29 October 2020
Orbit: 770 x 850 km, 115.0° (Epoch: 01 December)

Event Time Altitude Azimuth Distance (km) Brightness Sun altitude
Exits shadow 16:36:12 - 95° (E) 2,906 5.9 -5.7°
Reaches altitude 10° 16:37:24 10° 90° (E) 2,459 5.5 -5.9°
Maximum altitude 16:42:15 36° 26° (NNE) 1,312 4.4 -6.6°
Drops below altitude 10° 16:47:09 10° 321° (NW) 2,486 6.5 -7.3°
Sets 16:49:38 0° 313° (NW) 3,424 7.4 -7.7°
